User: anonymous   Login
Location: Rancho Del Sol Observatory
(38.7214°N, 120.6350°W)
Time: 11:43:22
(UTC-08:00)
Language:

A-11 Canister half - Orbit

View from above orbital plane
View from above orbital plane
View from above satellite
View from above satellite

Ground track
Ground track

The orbit data is extracted from the following two-line orbital elements,

1    51U 60009C   21026.42506349 -.00000105  00000-0 -18347-3 0  9999
2    51  47.2148  17.6022 0104272 106.2184 255.0106 12.18270323691262
Epoch (UTC): 26 January 2021 10:12:05
Eccentricity: 0.0104272
inclination: 47.2148°
perigee height: 1517 km
apogee height: 1683 km
right ascension of ascending node: 17.6022°
argument of perigee: 106.2184°
revolutions per day: 12.18270323
mean anomaly at epoch: 255.0106°
orbit number at epoch: 69126

The dashed part of the orbit path shows where the satellite is in the earth's shadow,  

DLR